Year,Month,Day,Hour,Minute,Value (Times are PST for temperature in C)
2015,08,10,00,00,15.50
2015,08,10,00,01,15.50
2015,08,10,00,02,15.50
2015,08,10,00,03,15.50
2015,08,10,00,04,15.50
2015,08,10,00,05,15.50
2015,08,10,00,06,15.40
2015,08,10,00,07,15.40
2015,08,10,00,08,15.40
2015,08,10,00,09,15.40
2015,08,10,00,10,15.40
2015,08,10,00,11,15.30
2015,08,10,00,12,15.30
2015,08,10,00,13,15.30
2015,08,10,00,14,15.30
2015,08,10,00,15,15.30
2015,08,10,00,16,15.30
2015,08,10,00,17,15.30
2015,08,10,00,18,15.20
2015,08,10,00,19,15.20
2015,08,10,00,20,15.20
2015,08,10,00,21,15.20
2015,08,10,00,22,15.20
2015,08,10,00,23,15.20
2015,08,10,00,24,15.20
2015,08,10,00,25,15.10
2015,08,10,00,26,15.10
2015,08,10,00,27,15.10
2015,08,10,00,28,15.10
2015,08,10,00,29,15.00
2015,08,10,00,30,15.00
2015,08,10,00,31,15.00
2015,08,10,00,32,15.00
2015,08,10,00,33,14.90
2015,08,10,00,34,14.90
2015,08,10,00,35,14.90
2015,08,10,00,36,14.90
2015,08,10,00,37,14.80
2015,08,10,00,38,14.80
2015,08,10,00,39,14.80
2015,08,10,00,40,14.80
2015,08,10,00,41,14.80
2015,08,10,00,42,14.80
2015,08,10,00,43,14.80
2015,08,10,00,44,14.80
2015,08,10,00,45,14.80
2015,08,10,00,46,14.70
2015,08,10,00,47,14.70
2015,08,10,00,48,14.70
2015,08,10,00,49,14.70
2015,08,10,00,50,14.70
2015,08,10,00,51,14.70
2015,08,10,00,52,14.60
2015,08,10,00,53,14.60
2015,08,10,00,54,14.60
2015,08,10,00,55,14.60
2015,08,10,00,56,14.60
2015,08,10,00,57,14.60
2015,08,10,00,58,14.60
2015,08,10,00,59,14.70
2015,08,10,01,00,14.70
2015,08,10,01,01,14.70
2015,08,10,01,02,14.70
2015,08,10,01,03,14.70
2015,08,10,01,04,14.70
2015,08,10,01,05,14.70
2015,08,10,01,06,14.70
2015,08,10,01,07,14.60
2015,08,10,01,08,14.60
2015,08,10,01,09,14.70
2015,08,10,01,10,14.70
2015,08,10,01,11,14.70
2015,08,10,01,12,14.70
2015,08,10,01,13,14.70
2015,08,10,01,14,14.70
2015,08,10,01,15,14.70
2015,08,10,01,16,14.70
2015,08,10,01,17,14.70
2015,08,10,01,18,14.70
2015,08,10,01,19,14.70
2015,08,10,01,20,14.70
2015,08,10,01,21,14.70
2015,08,10,01,22,14.70
2015,08,10,01,23,14.70
2015,08,10,01,24,14.70
2015,08,10,01,25,14.70
2015,08,10,01,26,14.70
2015,08,10,01,27,14.70
2015,08,10,01,28,14.70
2015,08,10,01,29,14.70
2015,08,10,01,30,14.70
2015,08,10,01,31,14.70
2015,08,10,01,32,14.70
2015,08,10,01,33,14.70
2015,08,10,01,34,14.70
2015,08,10,01,35,14.70
2015,08,10,01,36,14.70
2015,08,10,01,37,14.70
2015,08,10,01,38,14.70
2015,08,10,01,39,14.70
2015,08,10,01,40,14.70
2015,08,10,01,41,14.60
2015,08,10,01,42,14.60
2015,08,10,01,43,14.60
2015,08,10,01,44,14.60
2015,08,10,01,45,14.60
2015,08,10,01,46,14.60
2015,08,10,01,47,14.60
2015,08,10,01,48,14.60
2015,08,10,01,49,14.60
2015,08,10,01,50,14.60
2015,08,10,01,51,14.50
2015,08,10,01,52,14.50
2015,08,10,01,53,14.50
2015,08,10,01,54,14.50
2015,08,10,01,55,14.40
2015,08,10,01,56,14.40
2015,08,10,01,57,14.40
2015,08,10,01,58,14.40
2015,08,10,01,59,14.40
2015,08,10,02,00,14.40
2015,08,10,02,01,14.40
2015,08,10,02,02,14.40
2015,08,10,02,03,14.40
2015,08,10,02,04,14.40
2015,08,10,02,05,14.30
2015,08,10,02,06,14.30
2015,08,10,02,07,14.30
2015,08,10,02,08,14.30
2015,08,10,02,09,14.30
2015,08,10,02,10,14.30
2015,08,10,02,11,14.30
2015,08,10,02,12,14.30
2015,08,10,02,13,14.30
2015,08,10,02,14,14.30
2015,08,10,02,15,14.30
2015,08,10,02,16,14.30
2015,08,10,02,17,14.30
2015,08,10,02,18,14.30
2015,08,10,02,19,14.30
2015,08,10,02,20,14.30
2015,08,10,02,21,14.30
2015,08,10,02,22,14.30
2015,08,10,02,23,14.30
2015,08,10,02,24,14.20
2015,08,10,02,25,14.20
2015,08,10,02,26,14.20
2015,08,10,02,27,14.20
2015,08,10,02,28,14.20
2015,08,10,02,29,14.20
2015,08,10,02,30,14.20
2015,08,10,02,31,14.20
2015,08,10,02,32,14.20
2015,08,10,02,33,14.20
2015,08,10,02,34,14.20
2015,08,10,02,35,14.20
2015,08,10,02,36,14.20
2015,08,10,02,37,14.20
2015,08,10,02,38,14.30
2015,08,10,02,39,14.20
2015,08,10,02,40,14.20
2015,08,10,02,41,14.20
2015,08,10,02,42,14.20
2015,08,10,02,43,14.20
2015,08,10,02,44,14.20
2015,08,10,02,45,14.20
2015,08,10,02,46,14.20
2015,08,10,02,47,14.20
2015,08,10,02,48,14.20
2015,08,10,02,49,14.30
2015,08,10,02,50,14.30
2015,08,10,02,51,14.30
2015,08,10,02,52,14.30
2015,08,10,02,53,14.30
2015,08,10,02,54,14.30
2015,08,10,02,55,14.30
2015,08,10,02,56,14.30
2015,08,10,02,57,14.30
2015,08,10,02,58,14.30
2015,08,10,02,59,14.30
2015,08,10,03,00,14.30
2015,08,10,03,01,14.30
2015,08,10,03,02,14.30
2015,08,10,03,03,14.30
2015,08,10,04,02,14.40
2015,08,10,04,03,14.40
2015,08,10,04,04,14.40
2015,08,10,04,05,14.40
2015,08,10,04,06,14.40
2015,08,10,04,07,14.40
2015,08,10,04,08,14.40
2015,08,10,04,09,14.40
2015,08,10,04,10,14.40
2015,08,10,04,11,14.40
2015,08,10,04,12,14.40
2015,08,10,04,13,14.40
2015,08,10,04,14,14.40
2015,08,10,04,15,14.40
2015,08,10,04,16,14.40
2015,08,10,04,17,14.40
2015,08,10,04,18,14.40
2015,08,10,04,19,14.40
2015,08,10,04,20,14.40
2015,08,10,04,21,14.40
2015,08,10,04,22,14.40
2015,08,10,04,23,14.40
2015,08,10,04,24,14.40
2015,08,10,04,25,14.40
2015,08,10,04,26,14.40
2015,08,10,04,27,14.40
2015,08,10,04,28,14.40
2015,08,10,04,29,14.40
2015,08,10,04,30,14.40
2015,08,10,04,31,14.40
2015,08,10,04,32,14.40
2015,08,10,04,33,14.40
2015,08,10,04,34,14.40
2015,08,10,04,35,14.40
2015,08,10,04,36,14.40
2015,08,10,04,37,14.40
2015,08,10,04,38,14.40
2015,08,10,04,39,14.40
2015,08,10,04,40,14.40
2015,08,10,04,41,14.40
2015,08,10,04,42,14.40
2015,08,10,04,43,14.40
2015,08,10,04,44,14.40
2015,08,10,04,45,14.40
2015,08,10,04,46,14.40
2015,08,10,04,47,14.40
2015,08,10,04,48,14.40
2015,08,10,04,49,14.40
2015,08,10,04,50,14.40
2015,08,10,04,51,14.40
2015,08,10,04,52,14.40
2015,08,10,04,53,14.40
2015,08,10,04,54,14.40
2015,08,10,04,55,14.40
2015,08,10,04,56,14.40
2015,08,10,04,57,14.40
2015,08,10,04,58,14.40
2015,08,10,04,59,14.40
2015,08,10,05,00,14.40
2015,08,10,05,01,14.40
2015,08,10,05,02,14.40
2015,08,10,05,03,14.40
2015,08,10,05,04,14.40
2015,08,10,05,05,14.40
2015,08,10,05,06,14.40
2015,08,10,05,07,14.40
2015,08,10,05,08,14.40
2015,08,10,05,09,14.40
2015,08,10,05,10,14.40
2015,08,10,05,11,14.40
2015,08,10,05,12,14.40
2015,08,10,05,13,14.40
2015,08,10,05,14,14.50
2015,08,10,05,15,14.50
2015,08,10,05,16,14.50
2015,08,10,05,17,14.50
2015,08,10,05,18,14.50
2015,08,10,05,19,14.50
2015,08,10,05,20,14.50
2015,08,10,05,21,14.50
2015,08,10,05,22,14.50
2015,08,10,05,23,14.50
2015,08,10,05,24,14.50
2015,08,10,05,25,14.50
2015,08,10,05,26,14.50
2015,08,10,05,27,14.50
2015,08,10,05,28,14.50
2015,08,10,05,29,14.50
2015,08,10,05,30,14.50
2015,08,10,05,31,14.50
2015,08,10,05,32,14.50
2015,08,10,05,33,14.50
2015,08,10,05,34,14.50
2015,08,10,05,35,14.60
2015,08,10,05,36,14.60
2015,08,10,05,37,14.60
2015,08,10,05,38,14.60
2015,08,10,05,39,14.60
2015,08,10,05,40,14.60
2015,08,10,05,41,14.60
2015,08,10,05,42,14.50
2015,08,10,05,43,14.60
2015,08,10,05,44,14.60
2015,08,10,05,45,14.60
2015,08,10,05,46,14.50
2015,08,10,05,47,14.60
2015,08,10,05,48,14.60
2015,08,10,05,49,14.60
2015,08,10,05,50,14.50
2015,08,10,05,51,14.50
2015,08,10,05,52,14.50
2015,08,10,05,53,14.50
2015,08,10,05,54,14.50
2015,08,10,05,55,14.50
2015,08,10,05,56,14.50
2015,08,10,05,57,14.50
2015,08,10,05,58,14.50
2015,08,10,05,59,14.50
2015,08,10,06,00,14.50
2015,08,10,06,01,14.50
2015,08,10,06,02,14.50
2015,08,10,06,03,14.50
2015,08,10,06,04,14.50
2015,08,10,06,05,14.50
2015,08,10,06,06,14.60
2015,08,10,06,07,14.60
2015,08,10,06,08,14.60
2015,08,10,06,09,14.60
2015,08,10,06,10,14.60
2015,08,10,06,11,14.60
2015,08,10,06,12,14.60
2015,08,10,06,13,14.60
2015,08,10,06,14,14.70
2015,08,10,06,15,14.70
2015,08,10,06,16,14.70
2015,08,10,06,17,14.70
2015,08,10,06,18,14.70
2015,08,10,06,19,14.70
2015,08,10,06,20,14.70
2015,08,10,06,21,14.70
2015,08,10,06,22,14.70
2015,08,10,06,23,14.70
2015,08,10,06,24,14.70
2015,08,10,06,25,14.70
2015,08,10,06,26,14.70
2015,08,10,06,27,14.70
2015,08,10,06,28,14.70
2015,08,10,06,29,14.70
2015,08,10,06,30,14.70
2015,08,10,06,31,14.70
2015,08,10,06,32,14.60
2015,08,10,06,33,14.60
2015,08,10,06,34,14.60
2015,08,10,06,35,14.70
2015,08,10,06,36,14.70
2015,08,10,06,37,14.70
2015,08,10,06,38,14.70
2015,08,10,06,39,14.80
2015,08,10,06,40,14.80
2015,08,10,06,41,14.80
2015,08,10,06,42,14.80
2015,08,10,06,43,14.80
2015,08,10,06,44,14.80
2015,08,10,06,45,14.80
2015,08,10,06,46,14.80
2015,08,10,06,47,14.80
2015,08,10,06,48,14.80
2015,08,10,06,49,14.80
2015,08,10,06,50,14.80
2015,08,10,06,51,14.80
2015,08,10,06,52,14.80
2015,08,10,06,53,14.80
2015,08,10,06,54,14.80
2015,08,10,06,55,14.80
2015,08,10,06,56,14.80
2015,08,10,06,57,14.80
2015,08,10,06,58,14.80
2015,08,10,06,59,14.80
2015,08,10,07,00,14.80
2015,08,10,07,01,14.80
2015,08,10,07,02,14.80
2015,08,10,07,03,14.80
2015,08,10,07,04,14.80
2015,08,10,07,05,14.80
2015,08,10,07,06,14.80
2015,08,10,07,07,14.80
2015,08,10,07,08,14.80
2015,08,10,07,09,14.80
2015,08,10,07,10,14.80
2015,08,10,07,11,14.80
2015,08,10,07,12,14.80
2015,08,10,07,13,14.80
2015,08,10,07,14,14.80
2015,08,10,07,15,14.90
2015,08,10,07,16,14.90
2015,08,10,07,17,14.90
2015,08,10,07,18,14.90
2015,08,10,07,19,14.90
2015,08,10,07,20,14.90
2015,08,10,07,21,14.90
2015,08,10,07,22,14.90
2015,08,10,07,23,14.90
2015,08,10,07,24,14.90
2015,08,10,07,25,14.90
2015,08,10,07,26,14.90
2015,08,10,07,27,14.90
2015,08,10,07,28,14.90
2015,08,10,07,29,14.90
2015,08,10,07,30,14.90
2015,08,10,07,31,14.90
2015,08,10,07,32,14.90
2015,08,10,07,33,14.90
2015,08,10,07,34,14.90
2015,08,10,07,35,14.90
2015,08,10,07,36,14.90
2015,08,10,07,37,14.90
2015,08,10,07,38,14.90
2015,08,10,07,39,14.90
2015,08,10,07,40,14.90
2015,08,10,07,41,14.90
2015,08,10,07,42,14.90
2015,08,10,07,43,14.90
2015,08,10,07,44,15.00
2015,08,10,07,45,15.00
2015,08,10,07,46,15.00
2015,08,10,07,47,15.00
2015,08,10,07,48,15.00
2015,08,10,07,49,15.00
2015,08,10,07,50,15.10
2015,08,10,07,51,15.10
2015,08,10,07,52,15.10
2015,08,10,07,53,15.10
2015,08,10,07,54,15.10
2015,08,10,07,55,15.10
2015,08,10,07,56,15.10
2015,08,10,07,57,15.10
2015,08,10,07,58,15.10
2015,08,10,07,59,15.10
2015,08,10,08,00,15.10
2015,08,10,08,01,15.10
2015,08,10,08,02,15.10
2015,08,10,08,03,15.20
2015,08,10,08,04,15.20
2015,08,10,08,05,15.20
2015,08,10,08,06,15.20
2015,08,10,08,07,15.20
2015,08,10,08,08,15.20
2015,08,10,08,09,15.20
2015,08,10,08,10,15.30
2015,08,10,08,11,15.30
2015,08,10,08,12,15.30
2015,08,10,08,13,15.30
2015,08,10,08,14,15.30
2015,08,10,08,15,15.30
2015,08,10,08,16,15.30
2015,08,10,08,17,15.30
2015,08,10,08,18,15.30
2015,08,10,08,19,15.30
2015,08,10,08,20,15.30
2015,08,10,08,21,15.30
2015,08,10,08,22,15.40
2015,08,10,08,23,15.40
2015,08,10,08,24,15.40
2015,08,10,08,25,15.40
2015,08,10,08,26,15.40
2015,08,10,08,27,15.50
2015,08,10,08,28,15.50
2015,08,10,08,29,15.60
2015,08,10,08,30,15.60
2015,08,10,08,31,15.60
2015,08,10,08,32,15.60
2015,08,10,08,33,15.60
2015,08,10,08,34,15.70
2015,08,10,08,35,15.70
2015,08,10,08,36,15.70
2015,08,10,08,37,15.70
2015,08,10,08,38,15.80
2015,08,10,08,39,15.80
2015,08,10,08,40,15.80
2015,08,10,08,41,15.90
2015,08,10,08,42,15.90
2015,08,10,08,43,15.90
2015,08,10,08,44,16.00
2015,08,10,08,45,16.00
2015,08,10,08,46,16.00
2015,08,10,08,47,16.10
2015,08,10,08,48,16.10
2015,08,10,08,49,16.10
2015,08,10,08,50,16.10
2015,08,10,08,51,16.10
2015,08,10,08,52,16.20
2015,08,10,08,53,16.20
2015,08,10,08,54,16.20
2015,08,10,08,55,16.20
2015,08,10,08,56,16.20
2015,08,10,08,57,16.20
2015,08,10,08,58,16.20
2015,08,10,08,59,16.20
2015,08,10,09,00,16.20
2015,08,10,09,01,16.20
2015,08,10,09,02,16.20
2015,08,10,09,03,16.10
2015,08,10,09,04,16.10
2015,08,10,09,05,16.00
2015,08,10,09,06,16.00
2015,08,10,09,07,15.90
2015,08,10,09,08,15.90
2015,08,10,09,09,15.90
2015,08,10,09,10,15.90
2015,08,10,09,11,15.90
2015,08,10,09,12,15.90
2015,08,10,09,13,15.90
2015,08,10,09,14,15.90
2015,08,10,09,15,15.90
2015,08,10,09,16,15.90
2015,08,10,09,17,15.90
2015,08,10,09,18,15.90
2015,08,10,09,19,16.00
2015,08,10,09,20,15.90
2015,08,10,09,21,16.00
2015,08,10,09,22,16.00
2015,08,10,09,23,16.00
2015,08,10,09,24,16.00
2015,08,10,09,25,16.10
2015,08,10,09,26,16.10
2015,08,10,09,27,16.10
2015,08,10,09,28,16.10
2015,08,10,09,29,16.20
2015,08,10,09,30,16.20
2015,08,10,09,31,16.20
2015,08,10,09,32,16.20
2015,08,10,09,33,16.30
2015,08,10,09,34,16.30
2015,08,10,09,35,16.30
2015,08,10,09,36,16.40
2015,08,10,09,37,16.40
2015,08,10,09,38,16.40
2015,08,10,09,39,16.50
2015,08,10,09,40,16.50
2015,08,10,09,41,16.60
2015,08,10,09,42,16.60
2015,08,10,09,43,16.60
2015,08,10,09,44,16.70
2015,08,10,09,45,16.70
2015,08,10,09,46,16.70
2015,08,10,09,47,16.80
2015,08,10,09,48,16.80
2015,08,10,09,49,16.80
2015,08,10,09,50,16.80
2015,08,10,09,51,16.80
2015,08,10,09,52,16.90
2015,08,10,09,53,16.90
2015,08,10,09,54,16.90
2015,08,10,09,55,16.90
2015,08,10,09,56,17.00
2015,08,10,09,57,17.00
2015,08,10,09,58,17.10
2015,08,10,09,59,17.10
2015,08,10,10,00,17.10
2015,08,10,10,01,17.10
2015,08,10,10,02,17.10
2015,08,10,10,03,17.20
2015,08,10,10,04,17.20
2015,08,10,10,05,17.20
2015,08,10,10,06,17.20
2015,08,10,10,07,17.30
2015,08,10,10,08,17.30
2015,08,10,10,09,17.30
2015,08,10,10,10,17.40
2015,08,10,10,11,17.40
2015,08,10,10,12,17.40
2015,08,10,10,13,17.50
2015,08,10,10,14,17.50
2015,08,10,10,15,17.60
2015,08,10,10,16,17.60
2015,08,10,10,17,17.70
2015,08,10,10,18,17.80
2015,08,10,10,19,17.80
2015,08,10,10,20,17.80
2015,08,10,10,21,17.90
2015,08,10,10,22,17.90
2015,08,10,10,23,18.00
2015,08,10,10,24,18.10
2015,08,10,10,25,18.10
2015,08,10,10,26,18.20
2015,08,10,10,27,18.30
2015,08,10,10,28,18.40
2015,08,10,10,29,18.50
2015,08,10,10,30,18.60
2015,08,10,10,31,18.70
2015,08,10,10,32,18.80
2015,08,10,10,33,18.80
2015,08,10,10,34,18.80
2015,08,10,10,35,18.80
2015,08,10,10,36,18.80
2015,08,10,10,37,18.90
2015,08,10,10,38,18.90
2015,08,10,10,39,19.00
2015,08,10,10,40,19.00
2015,08,10,10,41,19.10
2015,08,10,10,42,19.10
2015,08,10,10,43,19.20
2015,08,10,10,44,19.30
2015,08,10,10,45,19.30
2015,08,10,10,46,19.40
2015,08,10,10,47,19.40
2015,08,10,10,48,19.50
2015,08,10,10,49,19.60
2015,08,10,10,50,19.70
2015,08,10,10,51,19.80
2015,08,10,10,52,19.90
2015,08,10,10,53,20.00
2015,08,10,10,54,20.10
2015,08,10,10,55,20.20
2015,08,10,10,56,20.30
2015,08,10,10,57,20.30
2015,08,10,10,58,20.30
2015,08,10,10,59,20.30
2015,08,10,11,00,20.30
2015,08,10,11,01,20.30
2015,08,10,11,02,20.30
2015,08,10,11,03,20.30
2015,08,10,11,04,20.20
2015,08,10,11,05,20.20
2015,08,10,11,06,20.20
2015,08,10,11,07,20.20
2015,08,10,11,08,20.20
2015,08,10,11,09,20.10
2015,08,10,11,10,20.10
2015,08,10,11,11,20.20
2015,08,10,11,12,20.20
2015,08,10,11,13,20.20
2015,08,10,11,14,20.30
2015,08,10,11,15,20.40
2015,08,10,11,16,20.50
2015,08,10,11,17,20.60
2015,08,10,11,18,20.70
2015,08,10,11,19,20.70
2015,08,10,11,20,20.70
2015,08,10,11,21,20.70
2015,08,10,11,22,20.70
2015,08,10,11,23,20.70
2015,08,10,11,24,20.70
2015,08,10,11,25,20.60
2015,08,10,11,26,20.60
2015,08,10,11,27,20.60
2015,08,10,11,28,20.60
2015,08,10,11,29,20.60
2015,08,10,11,30,20.60
2015,08,10,11,31,20.60
2015,08,10,11,32,20.70
2015,08,10,11,33,20.70
2015,08,10,11,34,20.80
2015,08,10,11,35,20.80
2015,08,10,11,36,20.80
2015,08,10,11,37,20.80
2015,08,10,11,38,20.80
2015,08,10,11,39,20.80
2015,08,10,11,40,20.80
2015,08,10,11,41,20.80
2015,08,10,11,42,20.70
2015,08,10,11,43,20.70
2015,08,10,11,44,20.70
2015,08,10,11,45,20.70
2015,08,10,11,46,20.70
2015,08,10,11,47,20.80
2015,08,10,11,48,20.80
2015,08,10,11,49,20.90
2015,08,10,11,50,20.90
2015,08,10,11,51,21.00
2015,08,10,11,52,21.00
2015,08,10,11,53,21.00
2015,08,10,11,54,21.00
2015,08,10,11,55,21.10
2015,08,10,11,56,21.00
2015,08,10,11,57,21.00
2015,08,10,11,58,21.00
2015,08,10,11,59,21.10
2015,08,10,12,00,21.10
2015,08,10,12,01,21.10
2015,08,10,12,02,21.20
2015,08,10,12,03,21.20
2015,08,10,12,04,21.20
2015,08,10,12,05,21.30
2015,08,10,12,06,21.30
2015,08,10,12,07,21.30
2015,08,10,12,08,21.30
2015,08,10,12,09,21.20
2015,08,10,12,10,21.20
2015,08,10,12,11,21.30
2015,08,10,12,12,21.30
2015,08,10,12,13,21.30
2015,08,10,12,14,21.30
2015,08,10,12,15,21.40
2015,08,10,12,16,21.40
2015,08,10,12,17,21.40
2015,08,10,12,18,21.40
2015,08,10,12,19,21.40
2015,08,10,12,20,21.40
2015,08,10,12,21,21.40
2015,08,10,12,22,21.40
2015,08,10,12,23,21.50
2015,08,10,12,24,21.50
2015,08,10,12,25,21.50
2015,08,10,12,26,21.50
2015,08,10,12,27,21.60
2015,08,10,12,28,21.60
2015,08,10,12,29,21.70
2015,08,10,12,30,21.70
2015,08,10,12,31,21.70
2015,08,10,12,32,21.70
2015,08,10,12,33,21.70
2015,08,10,12,34,21.80
2015,08,10,12,35,21.80
2015,08,10,12,36,21.80
2015,08,10,12,37,21.90
2015,08,10,12,38,21.90
2015,08,10,12,39,21.90
2015,08,10,12,40,21.90
2015,08,10,12,41,22.00
2015,08,10,12,42,22.00
2015,08,10,12,43,22.10
2015,08,10,12,44,22.10
2015,08,10,12,45,22.00
2015,08,10,12,46,22.00
2015,08,10,12,47,22.00
2015,08,10,12,48,22.00
2015,08,10,12,49,22.00
2015,08,10,12,50,22.00
2015,08,10,12,51,21.90
2015,08,10,12,52,22.00
2015,08,10,12,53,21.90
2015,08,10,12,54,21.90
2015,08,10,12,55,21.90
2015,08,10,12,56,21.80
2015,08,10,12,57,21.80
2015,08,10,12,58,21.80
2015,08,10,12,59,21.70
2015,08,10,13,00,21.80
2015,08,10,13,01,21.80
2015,08,10,13,02,21.90
2015,08,10,13,03,22.00
2015,08,10,13,04,22.20
2015,08,10,13,05,22.30
2015,08,10,13,06,22.40
2015,08,10,13,07,22.50
2015,08,10,13,08,22.50
2015,08,10,13,09,22.50
2015,08,10,13,10,22.50
2015,08,10,13,11,22.40
2015,08,10,13,12,22.30
2015,08,10,13,13,22.30
2015,08,10,13,14,22.30
2015,08,10,13,15,22.30
2015,08,10,13,16,22.30
2015,08,10,13,17,22.30
2015,08,10,13,18,22.30
2015,08,10,13,19,22.30
2015,08,10,13,20,22.30
2015,08,10,13,21,22.40
2015,08,10,13,22,22.50
2015,08,10,13,23,22.50
2015,08,10,13,24,22.60
2015,08,10,13,25,22.70
2015,08,10,13,26,22.70
2015,08,10,13,27,22.80
2015,08,10,13,28,22.90
2015,08,10,13,29,22.90
2015,08,10,13,30,23.00
2015,08,10,13,31,23.10
2015,08,10,13,32,23.20
2015,08,10,13,33,23.20
2015,08,10,13,34,23.20
2015,08,10,13,35,23.20
2015,08,10,13,36,23.20
2015,08,10,13,37,23.20
2015,08,10,13,38,23.20
2015,08,10,13,39,23.20
2015,08,10,13,40,23.20
2015,08,10,13,41,23.20
2015,08,10,13,42,23.20
2015,08,10,13,43,23.20
2015,08,10,13,44,23.30
2015,08,10,13,45,23.30
2015,08,10,13,46,23.30
2015,08,10,13,47,23.30
2015,08,10,13,48,23.30
2015,08,10,13,49,23.30
2015,08,10,13,50,23.40
2015,08,10,13,51,23.40
2015,08,10,13,52,23.50
2015,08,10,13,53,23.50
2015,08,10,13,54,23.50
2015,08,10,13,55,23.50
2015,08,10,13,56,23.50
2015,08,10,13,57,23.50
2015,08,10,13,58,23.40
2015,08,10,13,59,23.50
2015,08,10,14,00,23.50
2015,08,10,14,01,23.40
2015,08,10,14,02,23.50
2015,08,10,14,03,23.50
2015,08,10,14,04,23.50
2015,08,10,14,05,23.60
2015,08,10,14,06,23.60
2015,08,10,14,07,23.60
2015,08,10,14,08,23.70
2015,08,10,14,09,23.70
2015,08,10,14,10,23.80
2015,08,10,14,11,23.80
2015,08,10,14,12,23.80
2015,08,10,14,13,23.80
2015,08,10,14,14,23.80
2015,08,10,14,15,23.90
2015,08,10,14,16,23.90
2015,08,10,14,17,23.90
2015,08,10,14,18,23.90
2015,08,10,14,19,23.90
2015,08,10,14,20,23.90
2015,08,10,14,21,23.90
2015,08,10,14,22,23.90
2015,08,10,14,23,23.90
2015,08,10,14,24,23.80
2015,08,10,14,25,23.80
2015,08,10,14,26,23.90
2015,08,10,14,27,23.90
2015,08,10,14,28,23.90
2015,08,10,14,29,23.90
2015,08,10,14,30,23.90
2015,08,10,14,31,23.90
2015,08,10,14,32,23.90
2015,08,10,14,33,23.90
2015,08,10,14,34,23.80
2015,08,10,14,35,23.70
2015,08,10,14,36,23.70
2015,08,10,14,37,23.60
2015,08,10,14,38,23.50
2015,08,10,14,39,23.40
2015,08,10,14,40,23.40
2015,08,10,14,41,23.30
2015,08,10,14,42,23.30
2015,08,10,14,43,23.30
2015,08,10,14,44,23.20
2015,08,10,14,45,23.20
2015,08,10,14,46,23.20
2015,08,10,14,47,23.20
2015,08,10,14,48,23.10
2015,08,10,14,49,23.10
2015,08,10,14,50,23.00
2015,08,10,14,51,22.90
2015,08,10,14,52,22.80
2015,08,10,14,53,22.80
2015,08,10,14,54,22.80
2015,08,10,14,55,22.80
2015,08,10,14,56,22.80
2015,08,10,14,57,22.80
2015,08,10,14,58,22.80
2015,08,10,14,59,22.90
2015,08,10,15,00,22.90
2015,08,10,15,01,22.90
2015,08,10,15,02,23.00
2015,08,10,15,03,23.00
2015,08,10,15,04,23.10
2015,08,10,15,05,23.10
2015,08,10,15,06,23.20
2015,08,10,15,07,23.20
2015,08,10,15,08,23.20
2015,08,10,15,09,23.30
2015,08,10,15,10,23.30
2015,08,10,15,11,23.40
2015,08,10,15,12,23.40
2015,08,10,15,13,23.40
2015,08,10,15,14,23.50
2015,08,10,15,15,23.50
2015,08,10,15,16,23.50
2015,08,10,15,17,23.60
2015,08,10,15,18,23.60
2015,08,10,15,19,23.60
2015,08,10,15,20,23.70
2015,08,10,15,21,23.80
2015,08,10,15,22,23.80
2015,08,10,15,23,23.90
2015,08,10,15,24,24.00
2015,08,10,15,25,24.10
2015,08,10,15,26,24.20
2015,08,10,15,27,24.30
2015,08,10,15,28,24.40
2015,08,10,15,29,24.50
2015,08,10,15,30,24.60
2015,08,10,15,31,24.70
2015,08,10,15,32,24.70
2015,08,10,15,33,24.80
2015,08,10,15,34,24.80
2015,08,10,15,35,24.80
2015,08,10,15,36,24.80
2015,08,10,15,37,24.80
2015,08,10,15,38,24.80
2015,08,10,15,39,24.70
2015,08,10,15,40,24.70
2015,08,10,15,41,24.70
2015,08,10,15,42,24.70
2015,08,10,15,43,24.70
2015,08,10,15,44,24.70
2015,08,10,15,45,24.60
2015,08,10,15,46,24.60
2015,08,10,15,47,24.50
2015,08,10,15,48,24.50
2015,08,10,15,49,24.40
2015,08,10,15,50,24.50
2015,08,10,15,51,24.50
2015,08,10,15,52,24.50
2015,08,10,15,53,24.50
2015,08,10,15,54,24.50
2015,08,10,15,55,24.40
2015,08,10,15,56,24.40
2015,08,10,15,57,24.30
2015,08,10,15,58,24.30
2015,08,10,15,59,24.30
2015,08,10,16,00,24.30
2015,08,10,16,01,24.30
2015,08,10,16,02,24.40
2015,08,10,16,03,24.40
2015,08,10,16,04,24.50
2015,08,10,16,05,24.50
2015,08,10,16,06,24.60
2015,08,10,16,07,24.60
2015,08,10,16,08,24.70
2015,08,10,16,09,24.70
2015,08,10,16,10,24.80
2015,08,10,16,11,24.90
2015,08,10,16,12,24.90
2015,08,10,16,13,24.90
2015,08,10,16,14,24.90
2015,08,10,16,15,24.90
2015,08,10,16,16,24.90
2015,08,10,16,17,25.00
2015,08,10,16,18,25.00
2015,08,10,16,19,25.10
2015,08,10,16,20,25.10
2015,08,10,16,21,25.10
2015,08,10,16,22,25.10
2015,08,10,16,23,25.10
2015,08,10,16,24,25.10
2015,08,10,16,25,25.10
2015,08,10,16,26,25.10
2015,08,10,16,27,25.10
2015,08,10,16,28,25.10
2015,08,10,16,29,25.10
2015,08,10,16,30,25.10
2015,08,10,16,31,25.00
2015,08,10,16,32,25.00
2015,08,10,16,33,25.00
2015,08,10,16,34,25.10
2015,08,10,16,35,25.00
2015,08,10,16,36,25.00
2015,08,10,16,37,24.90
2015,08,10,16,38,24.90
2015,08,10,16,39,24.80
2015,08,10,16,40,24.80
2015,08,10,16,41,24.80
2015,08,10,16,42,24.80
2015,08,10,16,43,24.80
2015,08,10,16,44,24.80
2015,08,10,16,45,24.80
2015,08,10,16,46,24.80
2015,08,10,16,47,24.80
2015,08,10,16,48,24.80
2015,08,10,16,49,24.80
2015,08,10,16,50,24.90
2015,08,10,16,51,24.90
2015,08,10,16,52,25.00
2015,08,10,16,53,25.10
2015,08,10,16,54,25.10
2015,08,10,16,55,25.20
2015,08,10,16,56,25.20
2015,08,10,16,57,25.30
2015,08,10,16,58,25.30
2015,08,10,16,59,25.30
2015,08,10,17,00,25.30
2015,08,10,17,01,25.30
2015,08,10,17,02,25.20
2015,08,10,17,03,25.20
2015,08,10,17,04,25.20
2015,08,10,17,05,25.10
2015,08,10,17,06,25.10
2015,08,10,17,07,25.10
2015,08,10,17,08,25.10
2015,08,10,17,09,25.00
2015,08,10,17,10,25.00
2015,08,10,17,11,24.90
2015,08,10,17,12,25.00
2015,08,10,17,13,25.00
2015,08,10,17,14,25.00
2015,08,10,17,15,24.90
2015,08,10,17,16,24.90
2015,08,10,17,17,24.90
2015,08,10,17,18,24.90
2015,08,10,17,19,24.90
2015,08,10,17,20,24.90
2015,08,10,17,21,25.00
2015,08,10,17,22,25.10
2015,08,10,17,23,25.20
2015,08,10,17,24,25.20
2015,08,10,17,25,25.30
2015,08,10,17,26,25.30
2015,08,10,17,27,25.30
2015,08,10,17,28,25.30
2015,08,10,17,29,25.30
2015,08,10,17,30,25.20
2015,08,10,17,31,25.20
2015,08,10,17,32,25.20
2015,08,10,17,33,25.10
2015,08,10,17,34,25.10
2015,08,10,17,35,25.10
2015,08,10,17,36,25.10
2015,08,10,17,37,25.10
2015,08,10,17,38,25.00
2015,08,10,17,39,24.90
2015,08,10,17,40,24.90
2015,08,10,17,41,24.80
2015,08,10,17,42,24.80
2015,08,10,17,43,24.80
2015,08,10,17,44,24.70
2015,08,10,17,45,24.70
2015,08,10,17,46,24.60
2015,08,10,17,47,24.60
2015,08,10,17,48,24.60
2015,08,10,17,49,24.60
2015,08,10,17,50,24.50
2015,08,10,17,51,24.50
2015,08,10,17,52,24.50
2015,08,10,17,53,24.40
2015,08,10,17,54,24.50
2015,08,10,17,55,24.50
2015,08,10,17,56,24.50
2015,08,10,17,57,24.50
2015,08,10,17,58,24.60
2015,08,10,17,59,24.60
2015,08,10,18,00,24.60
2015,08,10,18,01,24.60
2015,08,10,18,02,24.60
2015,08,10,18,03,24.60
2015,08,10,18,04,24.60
2015,08,10,18,05,24.60
2015,08,10,18,06,24.70
2015,08,10,18,07,24.70
2015,08,10,18,08,24.70
2015,08,10,18,09,24.70
2015,08,10,18,10,24.60
2015,08,10,18,11,24.60
2015,08,10,18,12,24.60
2015,08,10,18,13,24.60
2015,08,10,18,14,24.50
2015,08,10,18,15,24.50
2015,08,10,18,16,24.50
2015,08,10,18,17,24.50